Bemidji, MN

8:25 AM CDT on April 20, 2018 (GMT -0500)
Bemidji-Beltrami County

Weather History for KBJI - December, 2013

Change the Weather History Date:

Saturday, December 7, 2013

  Actual Average Record
Temperature  
Mean Temperature -17 °F -  
Max Temperature -7 °F 22 °F 47 °F (1952)
Min Temperature -27 °F 3 °F -33 °F (1976)
Degree Days  
Heating Degree Days 82    
Moisture  
Dew Point -22 °F    
Average Humidity 76    
Maximum Humidity 82    
Minimum Humidity 67    
Precipitation  
Precipitation 0.00 in - - ()
Sea Level Pressure  
Sea Level Pressure 30.46 in    
Wind  
Wind Speed 5 mph (WSW)    
Max Wind Speed 15 mph    
Max Gust Speed -    
Visibility 10 miles    
Events      
Averages and records for this station are not official NWS values.
T = Trace of Precipitation, MM = Missing Value Source: NWS Daily Summary

Daily Weather History Graph

Daily Weather History Graph

Search for Another Location

Airport or City:

Astronomy

Dec. 07, 2013 Rise Set
Actual Time 7:53 AM CST 4:28 PM CST
Civil Twilight 7:18 AM CST 5:04 PM CST
Nautical Twilight 6:39 AM CST 5:43 PM CST
Astronomical Twilight 6:02 AM CST 6:20 PM CST
Moon 11:24 AM CST (12/7) 10:28 PM CST (12/7)
Length of Visible Light 9h 46m
Length of Day
8h 34m
Waxing Crescent, 29% of the Moon is Illuminated
Dec 7
Waxing Crescent
Dec 9
First Quarter
Dec 17
Full
Dec 25
Last Quarter
Jan 1
New

Hourly Weather History & Observations

Time (CST) Temp. Windchill Dew Point Humidity Pressure Visibility Wind Dir Wind Speed Gust Speed Precip Events Conditions
12:11 AM -17.5 °F -32.3 °F -22.2 °F 79% 30.48 in 10.0 mi West 5.8 mph - N/A   Clear
12:31 AM -18.6 °F -33.6 °F -23.1 °F 80% 30.48 in 10.0 mi West 5.8 mph - N/A   Clear
12:51 AM -18.8 °F -33.8 °F -23.1 °F 81% 30.48 in 10.0 mi West 5.8 mph - N/A   Clear
1:11 AM -18.4 °F -33.4 °F -22.9 °F 80% 30.48 in 10.0 mi WSW 5.8 mph - N/A   Clear
1:30 AM -18.6 °F -33.6 °F -23.1 °F 80% 30.48 in 10.0 mi WSW 5.8 mph - N/A   Clear
1:51 AM -17.5 °F -30.3 °F -22.2 °F 79% 30.48 in 10.0 mi WSW 4.6 mph - N/A   Clear
2:11 AM -18.2 °F -31.2 °F -23.1 °F 78% 30.49 in 10.0 mi WSW 4.6 mph - N/A   Clear
2:31 AM -18.0 °F -28.5 °F -22.9 °F 78% 30.49 in 10.0 mi WSW 3.5 mph - N/A   Clear
2:51 AM -18.6 °F -31.6 °F -23.8 °F 77% 30.49 in 10.0 mi West 4.6 mph - N/A   Clear
3:11 AM -19.3 °F - -24.0 °F 79% 30.49 in 10.0 mi Calm Calm - N/A   Clear
3:31 AM -20.0 °F -30.7 °F -24.7 °F 79% 30.49 in 10.0 mi WSW 3.5 mph - N/A   Clear
3:51 AM -19.3 °F -32.4 °F -24.2 °F 78% 30.49 in 10.0 mi WSW 4.6 mph - N/A   Clear
4:11 AM -19.7 °F - -24.7 °F 78% 30.48 in 10.0 mi Calm Calm - N/A   Clear
4:31 AM -20.7 °F -31.5 °F -25.8 °F 78% 30.49 in 10.0 mi SW 3.5 mph - N/A   Clear
4:51 AM -20.0 °F - -24.9 °F 78% 30.49 in 10.0 mi Calm Calm - N/A   Clear
5:11 AM -20.7 °F - -25.6 °F 78% 30.49 in 10.0 mi Calm Calm - N/A   Clear
5:31 AM -24.9 °F - -28.7 °F 82% 30.47 in 10.0 mi Calm Calm - N/A   Clear
5:51 AM -26.0 °F - -30.3 °F 80% 30.47 in 10.0 mi Calm Calm - N/A   Clear
6:11 AM -22.2 °F -35.8 °F -26.7 °F 80% 30.46 in 10.0 mi West 4.6 mph - N/A   Clear
6:31 AM -27.2 °F - -31.7 °F 79% 30.46 in 10.0 mi Calm Calm - N/A   Clear
6:51 AM -22.2 °F -33.2 °F -26.9 °F 79% 30.47 in 10.0 mi SW 3.5 mph - N/A   Clear
7:11 AM -21.8 °F -32.8 °F -27.2 °F 76% 30.47 in 10.0 mi WSW 3.5 mph - N/A   Clear
7:31 AM -23.6 °F -34.8 °F -28.5 °F 78% 30.47 in 10.0 mi SW 3.5 mph - N/A   Clear
7:51 AM -22.2 °F -35.8 °F -27.4 °F 77% 30.47 in 10.0 mi WSW 4.6 mph - N/A   Clear
8:11 AM -22.2 °F - -27.4 °F 77% 30.47 in 10.0 mi Calm Calm - N/A   Clear
8:31 AM -21.8 °F -32.8 °F -27.2 °F 76% 30.48 in 10.0 mi SW 3.5 mph - N/A   Clear
8:50 AM -20.9 °F -34.3 °F -26.5 °F 75% 30.48 in 10.0 mi WSW 4.6 mph - N/A   Clear
9:11 AM -19.5 °F -34.7 °F -24.9 °F 76% 30.49 in 10.0 mi SW 5.8 mph - N/A   Clear
9:31 AM -18.6 °F -35.3 °F -23.8 °F 77% 30.49 in 10.0 mi WSW 6.9 mph - N/A   Clear
9:50 AM -17.5 °F -35.5 °F -22.9 °F 76% 30.50 in 7.0 mi West 8.1 mph - N/A   Clear
10:11 AM -16.2 °F -34.0 °F -21.5 °F 77% 30.50 in 10.0 mi West 8.1 mph - N/A   Clear
10:31 AM -15.0 °F -35.9 °F -20.4 °F 77% 30.51 in 7.0 mi WSW 11.5 mph - N/A   Clear
10:50 AM -13.9 °F -35.5 °F -19.3 °F 77% 30.51 in 10.0 mi WSW 12.7 mph - N/A   Clear
11:11 AM -12.6 °F -30.8 °F -18.4 °F 75% 30.50 in 7.0 mi West 9.2 mph - N/A   Mostly Cloudy
11:31 AM -12.1 °F -31.3 °F -18.2 °F 74% 30.50 in 7.0 mi West 10.4 mph - N/A   Overcast
11:50 AM -11.2 °F -30.1 °F -17.3 °F 74% 30.49 in 7.0 mi West 10.4 mph - N/A   Overcast
12:11 PM -10.8 °F -33.2 °F -17.7 °F 72% 30.48 in 7.0 mi West 15.0 mph - N/A   Overcast
12:31 PM -10.3 °F -30.0 °F -17.1 °F 72% 30.47 in 10.0 mi West 11.5 mph - N/A   Overcast
12:51 PM -9.2 °F -28.7 °F -16.6 °F 70% 30.47 in 10.0 mi West 11.5 mph - N/A   Scattered Clouds
1:11 PM -8.9 °F -27.2 °F -16.4 °F 69% 30.47 in 10.0 mi West 10.4 mph - N/A   Clear
1:31 PM -8.3 °F -26.6 °F -16.1 °F 69% 30.46 in 10.0 mi WSW 10.4 mph - N/A   Clear
1:51 PM -7.8 °F -24.8 °F -15.9 °F 68% 30.46 in 10.0 mi WSW 9.2 mph - N/A   Clear
2:11 PM -7.6 °F -24.6 °F -15.7 °F 68% 30.46 in 10.0 mi West 9.2 mph - N/A   Clear
2:31 PM -7.1 °F -22.8 °F -15.3 °F 67% 30.46 in 10.0 mi WSW 8.1 mph - N/A   Clear
2:50 PM -7.4 °F -25.4 °F -15.5 °F 68% 30.46 in 10.0 mi West 10.4 mph - N/A   Clear
3:11 PM -7.2 °F -20.1 °F -15.3 °F 68% 30.46 in 7.0 mi WSW 5.8 mph - N/A   Clear
3:31 PM -7.2 °F -18.3 °F -15.3 °F 68% 30.45 in 10.0 mi West 4.6 mph - N/A   Clear
3:50 PM -7.8 °F -19.0 °F -15.3 °F 70% 30.45 in 10.0 mi West 4.6 mph - N/A   Clear
4:11 PM -7.6 °F -22.1 °F -15.2 °F 70% 30.45 in 10.0 mi WSW 6.9 mph - N/A   Clear
4:31 PM -8.9 °F -22.1 °F -15.7 °F 72% 30.44 in 10.0 mi WSW 5.8 mph - N/A   Clear
4:50 PM -9.6 °F -24.5 °F -15.9 °F 74% 30.44 in 10.0 mi WSW 6.9 mph - N/A   Clear
5:11 PM -10.7 °F -22.3 °F -16.6 °F 75% 30.44 in 10.0 mi SW 4.6 mph - N/A   Clear
5:31 PM -11.2 °F -27.8 °F -17.5 °F 74% 30.44 in 10.0 mi SW 8.1 mph - N/A   Clear
5:50 PM -12.1 °F -25.9 °F -18.4 °F 74% 30.44 in 10.0 mi WSW 5.8 mph - N/A   Clear
6:11 PM -12.8 °F -24.9 °F -18.8 °F 75% 30.44 in 10.0 mi WSW 4.6 mph - N/A   Clear
6:31 PM -14.3 °F -28.5 °F -20.0 °F 75% 30.44 in 10.0 mi WSW 5.8 mph - N/A   Clear
6:51 PM -14.3 °F -30.1 °F -19.7 °F 77% 30.44 in 10.0 mi SW 6.9 mph - N/A   Clear
7:11 PM -15.0 °F -27.4 °F -20.2 °F 77% 30.44 in 10.0 mi SW 4.6 mph - N/A   Clear
7:31 PM -15.7 °F -31.9 °F -21.1 °F 77% 30.43 in 10.0 mi SW 6.9 mph - N/A   Clear
7:51 PM -16.1 °F -28.6 °F -21.3 °F 77% 30.43 in 10.0 mi SW 4.6 mph - N/A   Clear
8:11 PM -17.3 °F -30.1 °F -22.2 °F 79% 30.43 in 10.0 mi SSW 4.6 mph - N/A   Clear
8:31 PM -17.1 °F -31.9 °F -22.2 °F 78% 30.42 in 10.0 mi SW 5.8 mph - N/A   Clear
8:50 PM -17.9 °F -34.5 °F -22.9 °F 78% 30.42 in 10.0 mi SW 6.9 mph - N/A   Clear
9:11 PM -18.4 °F -35.1 °F -23.3 °F 78% 30.41 in 10.0 mi SSW 6.9 mph - N/A   Clear
9:31 PM -17.9 °F -35.9 °F -22.9 °F 78% 30.40 in 10.0 mi SW 8.1 mph - N/A   Clear
9:51 PM -17.5 °F -32.3 °F -22.9 °F 76% 30.40 in 10.0 mi SSW 5.8 mph - N/A   Clear
10:11 PM -18.6 °F -29.1 °F -23.8 °F 77% 30.39 in 10.0 mi SW 3.5 mph - N/A   Clear
10:31 PM -19.1 °F - -24.2 °F 78% 30.40 in 10.0 mi Calm Calm - N/A   Clear
10:51 PM -20.9 °F - -25.6 °F 79% 30.40 in 10.0 mi Calm Calm - N/A   Clear
11:11 PM -19.5 °F -34.7 °F -24.2 °F 79% 30.40 in 10.0 mi SSW 5.8 mph - N/A   Clear
11:31 PM -19.3 °F -32.4 °F -24.0 °F 79% 30.40 in 10.0 mi SSW 4.6 mph - N/A   Clear
11:51 PM -18.8 °F -29.3 °F -23.1 °F 81% 30.40 in 10.0 mi South 3.5 mph - N/A   Clear